Location: Champs
(48.8539°N, 2.6040°E)
Time: 00:09:28
(UTC+00:00)

USA 308 - Pass Details

Date: 04 June 2022
Orbit: 549 x 558 km, 54.0° (Epoch: 14 June)

Event Time Altitude Azimuth Distance (km) Brightness Sun altitude
Rises 20:38:17 0° 206° (SSW) 2,711 6.1 -7.1°
Reaches altitude 10° 20:40:44 10° 194° (SSW) 1,823 5.2 -7.3°
Maximum altitude 20:44:14 27° 136° (SE) 1,086 3.7 -7.7°
Drops below altitude 10° 20:47:46 10° 78° (ENE) 1,839 5.2 -8.1°
Sets 20:50:14 0° 66° (ENE) 2,740 6.2 -8.4°
